Roxboro, NC

9:49 PM EDT on May 27, 2017 (GMT -0400)
Person County

Weather History for KTDF - March, 2013

Change the Weather History Date:

Sunday, March 24, 2013

  Actual Average Record
Temperature  
Mean Temperature 36 °F -  
Max Temperature 39 °F 62 °F 82 °F (2007)
Min Temperature 32 °F 35 °F 21 °F (1992)
Degree Days  
Heating Degree Days 30    
Moisture  
Dew Point 34 °F    
Average Humidity 95    
Maximum Humidity 100    
Minimum Humidity 75    
Precipitation  
Precipitation 0.30 in - - ()
Sea Level Pressure  
Sea Level Pressure 29.77 in    
Wind  
Wind Speed 4 mph (NE)    
Max Wind Speed 20 mph    
Max Gust Speed 26 mph    
Visibility 7 miles    
Events Rain    
Averages and records for this station are not official NWS values.
T = Trace of Precipitation, MM = Missing Value Source: NWS Daily Summary

Daily Weather History Graph

Daily Weather History Graph

Search for Another Location

Airport or City:

Trip Planner

Search our weather history database for the weather conditions in past years. The results will help you decide how hot, cold, wet, or windy it might be!

Date:

Astronomy

Mar. 24, 2013 Rise Set
Actual Time 7:13 AM EDT 7:31 PM EDT
Civil Twilight 6:47 AM EDT 7:57 PM EDT
Nautical Twilight 6:17 AM EDT 8:27 PM EDT
Astronomical Twilight 5:46 AM EDT 8:57 PM EDT
Moon 5:01 PM EDT (3/24) 5:18 AM EDT (3/24)
Length of Visible Light 13h 09m
Length of Day
12h 18m
Waxing Gibbous, 91% of the Moon is Illuminated
Mar 24
Waxing Gibbous
Mar 27
Full
Apr 3
Last Quarter
Apr 10
New
Apr 18
First Quarter

Hourly Weather History & Observations

Time (EDT) Temp. Windchill Dew Point Humidity Pressure Visibility Wind Dir Wind Speed Gust Speed Precip Events Conditions
12:15 AM 33.8 °F - 30.2 °F 87% 29.92 in 10.0 mi Calm Calm - N/A   Clear
12:35 AM 33.8 °F - 30.2 °F 87% 29.92 in 10.0 mi Calm Calm - N/A   Clear
12:55 AM 32.0 °F - 30.2 °F 93% 29.94 in 10.0 mi Calm Calm - N/A   Clear
1:15 AM 32.0 °F - 30.2 °F 93% 29.92 in 10.0 mi Calm Calm - N/A   Clear
1:35 AM 32.0 °F - 28.4 °F 87% 29.92 in 10.0 mi Calm Calm - N/A   Clear
1:55 AM 32.0 °F - 30.2 °F 93% 29.93 in 10.0 mi Calm Calm - N/A   Clear
2:15 AM 32.0 °F - 32.0 °F 100% 29.92 in 10.0 mi Calm Calm - N/A   Clear
2:35 AM 32.0 °F - 32.0 °F 100% 29.91 in 10.0 mi Calm Calm - N/A   Clear
2:55 AM 32.0 °F - 32.0 °F 100% 29.91 in 10.0 mi Calm Calm - N/A   Clear
3:15 AM 32.0 °F - 32.0 °F 100% 29.92 in 10.0 mi Calm Calm - N/A   Clear
3:35 AM 33.8 °F - 32.0 °F 93% 29.93 in 10.0 mi Calm Calm - N/A   Clear
3:55 AM 33.8 °F - 32.0 °F 93% 29.93 in 10.0 mi Calm Calm - N/A   Clear
4:15 AM 33.8 °F - 32.0 °F 93% 29.92 in 10.0 mi Calm Calm - N/A   Clear
4:35 AM 33.8 °F - 32.0 °F 93% 29.91 in 10.0 mi Calm Calm - N/A   Clear
4:55 AM 33.8 °F - 32.0 °F 93% 29.90 in 10.0 mi Calm Calm - N/A   Clear
5:15 AM 33.8 °F - 32.0 °F 93% 29.90 in 10.0 mi Calm Calm - N/A   Clear
5:35 AM 35.6 °F - 33.8 °F 93% 29.89 in 10.0 mi Calm Calm - N/A   Clear
5:55 AM 35.6 °F 29.2 °F 32.0 °F 87% 29.88 in 10.0 mi NE 8.1 mph - N/A   Mostly Cloudy
6:15 AM 37.4 °F 33.8 °F 32.0 °F 81% 29.88 in 10.0 mi NE 4.6 mph - N/A   Overcast
6:35 AM 37.4 °F 33.8 °F 32.0 °F 81% 29.88 in 10.0 mi NE 4.6 mph - N/A   Overcast
6:55 AM 37.4 °F 33.8 °F 32.0 °F 81% 29.88 in 10.0 mi ENE 4.6 mph - N/A   Overcast
7:15 AM 39.2 °F 35.9 °F 32.0 °F 75% 29.88 in 10.0 mi ENE 4.6 mph - N/A   Overcast
7:35 AM 39.2 °F 35.9 °F 32.0 °F 75% 29.86 in 10.0 mi East 4.6 mph - N/A   Light Drizzle
7:55 AM 39.2 °F 37.0 °F 32.0 °F 75% 29.85 in 10.0 mi NE 3.5 mph - N/A   Overcast
8:15 AM 39.2 °F 35.9 °F 32.0 °F 75% 29.85 in 10.0 mi NE 4.6 mph - N/A   Overcast
8:35 AM 39.2 °F 37.0 °F 32.0 °F 75% 29.86 in 10.0 mi NE 3.5 mph - N/A Rain Light Rain
8:55 AM 37.4 °F 30.8 °F 33.8 °F 87% 29.81 in 10.0 mi ENE 9.2 mph - N/A Rain Light Rain
9:15 AM 37.4 °F 30.3 °F 33.8 °F 87% 29.81 in 10.0 mi NE 10.4 mph - N/A Rain Light Rain
9:35 AM 37.4 °F 31.4 °F 33.8 °F 87% 29.82 in 10.0 mi NE 8.1 mph - N/A Rain Rain
9:55 AM 37.4 °F 31.4 °F 33.8 °F 87% 29.84 in 7.0 mi NNE 8.1 mph - 0.01 in Rain Rain
10:15 AM 35.6 °F 30.7 °F 33.8 °F 93% 29.87 in 5.0 mi NNE 5.8 mph - 0.01 in Rain Rain
10:35 AM 35.6 °F 28.6 °F 35.6 °F 100% 29.84 in 4.0 mi NE 9.2 mph - 0.02 in Rain Rain
10:55 AM 37.4 °F 29.3 °F 35.6 °F 93% 29.82 in 5.0 mi ENE 12.7 mph - 0.03 in Rain Light Rain
11:15 AM 37.4 °F 29.8 °F 35.6 °F 93% 29.79 in 7.0 mi ENE 11.5 mph 19.6 mph N/A Rain Light Rain
11:35 AM 37.4 °F 28.9 °F 35.6 °F 93% 29.77 in 10.0 mi ENE 13.8 mph 19.6 mph N/A   Light Drizzle
11:55 AM 37.4 °F 30.3 °F 37.4 °F 100% 29.77 in 10.0 mi ENE 10.4 mph 19.6 mph N/A Rain Rain
12:15 PM 37.4 °F 31.4 °F 37.4 °F 100% 29.77 in 5.0 mi NE 8.1 mph - 0.01 in Rain Rain
12:35 PM 37.4 °F 29.8 °F 37.4 °F 100% 29.74 in 2.5 mi NE 11.5 mph - 0.02 in Rain Rain
12:55 PM 37.4 °F 30.3 °F 37.4 °F 100% 29.73 in 2.0 mi NE 10.4 mph - 0.03 in Rain Rain
1:15 PM 37.4 °F 30.3 °F 37.4 °F 100% 29.73 in 1.5 mi NE 10.4 mph - 0.02 in Rain Rain
1:35 PM 37.4 °F 28.5 °F 37.4 °F 100% 29.69 in 3.0 mi NE 15.0 mph 19.6 mph 0.03 in Rain Light Rain
1:55 PM 37.4 °F 30.3 °F 37.4 °F 100% 29.69 in 5.0 mi NNE 10.4 mph 16.1 mph 0.03 in Rain Rain
2:15 PM 37.4 °F 28.5 °F 37.4 °F 100% 29.65 in 2.5 mi ENE 15.0 mph 19.6 mph N/A   Heavy Drizzle
2:35 PM 35.6 °F 27.1 °F 35.6 °F 100% 29.65 in 5.0 mi NNE 12.7 mph 20.7 mph N/A Rain Rain
2:55 PM 35.6 °F 29.2 °F 35.6 °F 100% 29.64 in 2.5 mi NNE 8.1 mph 16.1 mph 0.01 in Rain Rain
3:15 PM 35.6 °F 26.2 °F 35.6 °F 100% 29.62 in 0.8 mi NNE 15.0 mph 19.6 mph 0.07 in Rain Light Rain
3:35 PM 35.6 °F 28.6 °F 35.6 °F 100% 29.63 in 1.2 mi NNE 9.2 mph 16.1 mph 0.09 in Rain Rain
3:55 PM 35.6 °F 29.2 °F 35.6 °F 100% 29.63 in 2.5 mi NE 8.1 mph - 0.11 in Rain Rain
4:15 PM 35.6 °F 29.9 °F 35.6 °F 100% 29.64 in 2.0 mi NNE 6.9 mph - 0.01 in Rain Rain
4:35 PM 35.6 °F 29.9 °F 35.6 °F 100% 29.69 in 1.5 mi NNW 6.9 mph - 0.03 in Rain Rain
4:55 PM 35.6 °F 29.9 °F 35.6 °F 100% 29.68 in 1.5 mi North 6.9 mph - 0.08 in Rain Rain
5:15 PM 33.8 °F 27.0 °F 33.8 °F 100% 29.67 in 3.0 mi NNE 8.1 mph - N/A Rain Heavy Rain
5:35 PM 33.8 °F 27.0 °F 33.8 °F 100% 29.65 in 5.0 mi NNE 8.1 mph - N/A   Drizzle
5:55 PM 33.8 °F 25.3 °F 33.8 °F 100% 29.64 in 7.0 mi ENE 11.5 mph - N/A   Light Drizzle
6:15 PM 33.8 °F 25.8 °F 33.8 °F 100% 29.63 in 7.0 mi NE 10.4 mph - N/A   Overcast
6:35 PM 33.8 °F 25.3 °F 33.8 °F 100% 29.61 in 10.0 mi ENE 11.5 mph 17.3 mph N/A   Overcast
6:55 PM 33.8 °F 22.5 °F 33.8 °F 100% 29.58 in 10.0 mi ENE 19.6 mph 26.5 mph N/A   Overcast
7:15 PM 33.8 °F 24.8 °F 33.8 °F 100% 29.62 in 10.0 mi ENE 12.7 mph 18.4 mph N/A   Overcast
7:35 PM 33.8 °F 25.8 °F 33.8 °F 100% 29.61 in 10.0 mi ENE 10.4 mph 18.4 mph N/A   Overcast
7:55 PM 33.8 °F 27.0 °F 33.8 °F 100% 29.62 in 10.0 mi ENE 8.1 mph - N/A   Overcast
8:15 PM 33.8 °F 28.6 °F 33.8 °F 100% 29.64 in 10.0 mi NE 5.8 mph - N/A   Overcast
8:35 PM 33.8 °F 28.6 °F 33.8 °F 100% 29.65 in 10.0 mi NNE 5.8 mph - N/A   Overcast
8:55 PM 33.8 °F - 33.8 °F 100% 29.66 in 10.0 mi Calm Calm - N/A   Overcast
9:15 PM 33.8 °F 30.8 °F 33.8 °F 100% 29.66 in 10.0 mi NNE 3.5 mph - N/A   Overcast
9:35 PM 33.8 °F 30.8 °F 33.8 °F 100% 29.66 in 7.0 mi NNE 3.5 mph - N/A   Drizzle
9:55 PM 33.8 °F 27.7 °F 33.8 °F 100% 29.65 in 5.0 mi NNE 6.9 mph - N/A   Drizzle
10:15 PM 33.8 °F 29.6 °F 33.8 °F 100% 29.66 in 5.0 mi NE 4.6 mph - N/A   Drizzle
10:35 PM 33.8 °F 30.8 °F 33.8 °F 100% 29.66 in 5.0 mi NNE 3.5 mph - N/A   Drizzle
10:55 PM 35.6 °F 31.7 °F 35.6 °F 100% 29.65 in 3.0 mi NNE 4.6 mph - N/A   Drizzle
11:15 PM 35.6 °F 30.7 °F 35.6 °F 100% 29.63 in 3.0 mi ENE 5.8 mph - N/A   Drizzle
11:35 PM 33.8 °F 27.7 °F 33.8 °F 100% 29.60 in 3.0 mi ENE 6.9 mph - N/A   Drizzle
11:55 PM 33.8 °F 27.7 °F 33.8 °F 100% 29.60 in 4.0 mi ENE 6.9 mph - N/A   Overcast